CST,Max TemperatureF,Mean TemperatureF,Min TemperatureF,Max Dew PointF,MeanDew PointF,Min DewpointF,Max Humidity, Mean Humidity, Min Humidity, Max Sea Level PressureIn, Mean Sea Level PressureIn, Min Sea Level PressureIn, Max VisibilityMiles, Mean VisibilityMiles, Min VisibilityMiles, Max Wind SpeedMPH, Mean Wind SpeedMPH, Max Gust SpeedMPH,PrecipitationIn, CloudCover, Events, WindDirDegrees
2013-2-1,39,26,12,13,9,5,84,57,29,30.46,30.32,30.17,,,,20,6,23,0.00,,,161
2013-2-2,59,39,19,32,23,13,92,58,24,30.33,30.27,30.20,,,,21,7,27,0.00,,,320
2013-2-3,58,42,25,30,24,20,81,53,25,30.31,30.12,29.83,,,,22,8,28,0.00,,,171
2013-2-4,59,45,31,31,27,24,75,52,28,29.99,29.91,29.80,,,,22,7,28,0.00,,,24
2013-2-5,66,44,21,29,23,21,88,54,19,30.05,30.00,29.94,,,,16,6,20,0.00,,,27
2013-2-6,60,47,33,54,41,24,100,73,45,30.01,29.90,29.78,,,,16,9,26,0.00,,,141
2013-2-7,56,46,35,53,38,27,100,69,38,30.23,30.00,29.79,,,,26,12,34,0.04,,,19
2013-2-8,49,36,22,30,27,20,92,67,42,30.32,30.23,30.12,,,,15,7,20,0.00,,,123
2013-2-9,44,38,31,42,35,29,100,88,75,30.10,29.87,29.61,,,,22,11,32,0.14,,,142
2013-2-10,51,41,30,45,27,22,100,66,32,30.11,29.76,29.50,,,,31,15,41,0.00,,,282
2013-2-11,48,36,24,23,19,17,88,59,29,30.25,30.18,30.12,,,,17,6,22,0.00,,,12
2013-2-12,37,33,28,34,29,20,100,78,56,30.14,30.10,30.05,,,,10,4,13,0.06,,,278
2013-2-13,57,39,21,29,23,19,100,62,24,30.06,30.00,29.93,,,,18,7,24,0.00,,,293
2013-2-14,49,39,29,35,28,20,85,64,42,30.31,30.13,29.97,,,,21,9,27,0.00,,,349
2013-2-15,42,31,20,31,19,16,92,65,38,30.48,30.41,30.34,,,,24,9,32,0.01,,,344
2013-2-16,57,36,14,34,22,10,88,60,32,30.43,30.22,30.02,,,,18,6,24,0.00,,,207
2013-2-17,69,47,24,31,27,23,92,55,17,30.01,29.80,29.53,,,,24,9,32,0.00,,,170
2013-2-18,56,42,27,30,23,16,62,44,26,30.17,29.81,29.44,,,,36,16,49,0.00,,,334
2013-2-19,48,33,18,19,17,14,77,53,29,30.36,30.26,30.19,,,,14,6,19,0.00,,,70
2013-2-20,36,31,26,31,26,14,100,72,43,30.19,30.09,29.98,,,,20,12,28,0.86,,,114
2013-2-21,28,20,12,26,19,9,100,89,77,30.00,29.85,29.73,,,,24,14,28,1.10,,,17
2013-2-22,26,15,3,15,8,2,92,80,68,30.20,30.13,30.02,,,,16,7,21,0.00,,,315
2013-2-23,31,16,1,24,14,-1,100,85,69,30.16,30.03,29.90,,,,12,5,14,0.00,,,117
2013-2-24,42,33,23,32,26,19,92,80,67,29.91,29.84,29.76,,,,24,11,30,0.05,,,75
2013-2-25,34,32,29,31,30,28,100,93,85,29.86,29.80,29.73,,,,37,26,45,0.72,,,16
2013-2-26,35,28,21,29,24,18,92,78,64,29.99,29.86,29.79,,,,25,12,34,0.01,,,332
2013-2-27,38,29,19,28,22,15,92,74,56,30.25,30.15,30.03,,,,28,12,36,0.00,,,326
2013-2-28,37,28,19,26,22,17,96,78,59,30.31,30.27,30.24,,,,20,7,25,0.00,,,333